Location: Melque
(41.0517°N, 4.4694°W)
Time: 17:41:16
(UTC+00:00)

COSMO-SKYMED 1 - Pass Details

Date: 11 December 2025
Orbit: 578 x 580 km, 97.9° (Epoch: 15 January)

Event Time Altitude Azimuth Distance (km) Brightness Sun altitude
Exits shadow 17:51:57 16° 59° (ENE) 1,541 4.0 -11.5°
Maximum altitude 17:53:51 22° 94° (E) 1,302 3.7 -11.8°
Drops below altitude 10° 17:57:01 10° 146° (SE) 1,886 4.9 -12.3°
Sets 17:59:33 0° 162° (SSE) 2,779 5.9 -12.8°
